Regional Weather Roundup
Issued by NWS

Home | Current Version | Previous Version | Graphics & Text | Print | Product List | Glossary On
Versions: 1 2 3 4 5 6 7 8 9 10 11 12 13 14 15 16 17 18 19 20 21 22 23 24 25 26 27 28 29 30 31 32 33 34 35 36 37 38 39 40 41 42 43 44 45 46 47 48 49 50
000
ASUS43 KFSD 281910
RWRSD

WEATHER ROUNDUP FOR SOUTH DAKOTA
NATIONAL WEATHER SERVICE SIOUX FALLS SD
100 PM CST FRI NOV 28 2014

NOTE: "FAIR" INDICATES FEW OR NO CLOUDS BELOW 12,000 FEET WITH NO
SIGNIFICANT WEATHER AND/OR OBSTRUCTIONS TO VISIBILITY.


SDZ001>005-009-010-012>017-282000-
NORTHWEST AND NORTH CENTRAL SOUTH DAKOTA

CITY           SKY/WX    TMP DP  RH WIND       PRES   REMARKS
BUFFALO          N/A     51  32  48 W14       29.54F
FAITH            N/A     46  29  51 S9        29.60F
MOBRIDGE       MOSUNNY   30  21  69 E8        29.63F WCI  22
$$

SDZ012>016-024>037-041>051-057-063-072>074-282000-
SOUTHWEST AND SOUTH CENTRAL SOUTH DAKOTA

CITY           SKY/WX    TMP DP  RH WIND       PRES   REMARKS
RAPID CTY ARPT MOSUNNY   58  36  43 SE6       29.63F
PIERRE         SUNNY     36  23  59 E5        29.63F
CUSTER         MOSUNNY   52  22  30 W10       29.72F
ELLSWORTH AFB  PTSUNNY   60  36  41 S6        29.62F
PHILIP         SUNNY     55  33  43 SW3       29.63F
PINE RIDGE     SUNNY     60  28  29 W10       29.70F
SPEARFISH      FAIR      61  27  27 SW10      29.63F
WINNER         FAIR      56  29  35 NW13      29.64F
$$

SDZ004>011-016>023-039-040-282000-
NORTHEAST SOUTH DAKOTA

CITY           SKY/WX    TMP DP  RH WIND       PRES   REMARKS
ABERDEEN       MOSUNNY   22  15  75 NE7       29.73F WCI  13
WATERTOWN      PTSUNNY   20  14  77 E8        29.69F WCI  10
SISSETON         N/A     16  11  80 SE10      29.78F WCI   4
$$

SDZ017-020-022-023-036>040-048>070-282000-
SOUTHEAST SOUTH DAKOTA

CITY           SKY/WX    TMP DP  RH WIND       PRES   REMARKS
SIOUX FALLS    PTSUNNY   31  25  78 E10       29.71F WCI  22
HURON          PTSUNNY   35  24  64 E6        29.69F
CHAMBERLAIN    SUNNY     44  27  50 E7        29.64F
MITCHELL       MOSUNNY   37  26  64 E9        29.68F
YANKTON        SUNNY     41  27  56 E14       29.68F
$$

ABBREVIATIONS USED IN REMARKS
   TC - TEMPERATURE IN CELSIUS
  WCI - WIND CHILL INDEX
   HX - HEAT INDEX
  VSB - VISIBILITY



USA.gov is the U.S. government's official web portal to all federal, state and local government web resources and services.